Terminal Aerodrome Forecast
Issued by NWS Wichita, KS

Home | Current Version | Previous Version | Graphics & Text | Print | Product List | Glossary On
Versions: 1 2 3 4 5 6 7 8 9 10 11 12 13 14 15 16
000
FTUS43 KICT 301453 AAB
TAFICT
TAF AMD
KICT 301453Z 3015/3112 01005KT 4SM BR OVC005
     FM301630 07005KT P6SM OVC015
     FM302100 12007KT P6SM BKN025=

USA.gov is the U.S. government's official web portal to all federal, state and local government web resources and services.